Apalachicola Bay - St. George Island Weather Center

Moon Phase Calendar



Online Cameras

 


      

Current Conditions in Apalachicola
2/27/2024 1:47:06 AM

64°F
Feels Like 65
Clear
Humidity
88%
Pressure
30.09"
Wind
11.5 mph (S)
Dew Point
61°F
UV Index
0/10 (Low)
Visibility
6 mi

Hourly Forecast

Date & Time Tue, Feb 27
1:00 AM
Tue, Feb 27
2:00 AM
Tue, Feb 27
3:00 AM
Tue, Feb 27
4:00 AM
Tue, Feb 27
5:00 AM
Tue, Feb 27
6:00 AM
Tue, Feb 27
7:00 AM
Tue, Feb 27
8:00 AM
Tue, Feb 27
9:00 AM
Tue, Feb 27
10:00 AM
Tue, Feb 27
11:00 AM
Tue, Feb 27
12:00 PM
Tue, Feb 27
1:00 PM
Tue, Feb 27
2:00 PM
Tue, Feb 27
3:00 PM
Tue, Feb 27
4:00 PM
Tue, Feb 27
5:00 PM
Tue, Feb 27
6:00 PM
Tue, Feb 27
7:00 PM
Tue, Feb 27
8:00 PM
Tue, Feb 27
9:00 PM
Tue, Feb 27
10:00 PM
Tue, Feb 27
11:00 PM
Wed, Feb 28
12:00 AM
Wed, Feb 28
1:00 AM
Wed, Feb 28
2:00 AM
Wed, Feb 28
3:00 AM
Wed, Feb 28
4:00 AM
Wed, Feb 28
5:00 AM
Wed, Feb 28
6:00 AM
Wed, Feb 28
7:00 AM
Wed, Feb 28
8:00 AM
Wed, Feb 28
9:00 AM
Wed, Feb 28
10:00 AM
Wed, Feb 28
11:00 AM
Wed, Feb 28
12:00 PM
Wed, Feb 28
1:00 PM
Wed, Feb 28
2:00 PM
Wed, Feb 28
3:00 PM
Wed, Feb 28
4:00 PM
Wed, Feb 28
5:00 PM
Wed, Feb 28
6:00 PM
Wed, Feb 28
7:00 PM
Wed, Feb 28
8:00 PM
Wed, Feb 28
9:00 PM
Wed, Feb 28
10:00 PM
Wed, Feb 28
11:00 PM
Thu, Feb 29
12:00 AM
Condition
Clear

Clear

Clear

Clear

Clear

Clear

Clear

Clouds

Clouds

Clouds

Clouds

Clouds

Clouds

Clouds

Clouds

Clouds

Clouds

Clouds

Clouds

Clouds

Clouds

Clouds

Clouds

Clouds

Clouds

Clouds

Clouds

Clouds

Clouds

Clouds

Clouds

Clouds

Clouds

Clouds

Clouds

Clouds

Clouds

Clouds

Clouds

Clouds

Clouds

Clouds

Clouds

Clouds

Rain

Clouds

Clouds

Clouds
Temperature 64°F64°F64°F64°F63°F63°F62°F63°F65°F66°F67°F67°F68°F68°F67°F67°F66°F65°F63°F63°F63°F63°F63°F63°F63°F63°F63°F63°F63°F64°F63°F64°F66°F67°F68°F69°F69°F70°F70°F69°F68°F67°F65°F65°F65°F62°F59°F58°F
Feels Like 64°F65°F64°F64°F63°F63°F62°F63°F65°F66°F67°F67°F67°F67°F67°F67°F66°F65°F63°F63°F63°F63°F63°F63°F63°F63°F64°F64°F64°F64°F64°F65°F66°F67°F68°F69°F70°F70°F70°F70°F68°F68°F66°F66°F66°F61°F58°F57°F
Cloudiness 4%0%1%2%3%4%5%13%14%13%15%20%21%45%28%21%17%15%13%66%35%23%19%19%32%61%40%60%70%76%80%100%100%100%100%100%100%100%100%100%100%100%100%100%100%100%100%100%
Visibility 6 mi6 mi6 mi6 mi6 mi6 mi6 mi6 mi6 mi6 mi6 mi6 mi6 mi6 mi6 mi6 mi6 mi6 mi6 mi6 mi6 mi6 mi6 mi6 mi6 mi6 mi6 mi6 mi6 mi6 mi6 mi6 mi6 mi6 mi6 mi6 mi6 mi6 mi6 mi6 mi6 mi6 mi6 mi6 mi6 mi6 mi6 mi6 mi
Precipitation 0%0%0%0%0%0%0%0%0%0%0%0%0%0%0%0%0%0%0%0%0%0%0%0%0%0%0%0%0%0%0%0%0%0%0%0%0%0%0%0%0%0%3%38%34%15%0%0%
Humidity 88%88%87%87%88%88%88%85%78%74%72%71%67%67%69%72%76%85%92%94%94%94%94%93%93%94%95%95%95%95%95%92%88%84%82%81%80%80%81%83%87%90%94%95%94%84%79%70%
Dew Point 60°F61°F60°F60°F59°F59°F58°F58°F58°F57°F57°F57°F56°F56°F56°F57°F58°F60°F61°F61°F61°F61°F61°F61°F61°F61°F62°F62°F62°F62°F62°F62°F62°F62°F62°F62°F63°F63°F63°F63°F64°F64°F63°F63°F63°F57°F52°F48°F
Pressure 30.09"30.09"30.09"30.09"30.06"30.06"30.06"30.09"30.09"30.12"30.12"30.12"30.12"30.09"30.09"30.06"30.06"30.03"30.03"30.06"30.06"30.06"30.06"30.03"30.03"30.03"30"30"30.03"30.03"30.03"30.06"30.09"30.12"30.12"30.12"30.12"30.09"30.09"30.09"30.09"30.09"30.12"30.15"30.15"30.18"30.21"30.21"
Wind Speed 11 mph11.3 mph11.1 mph10.4 mph10.9 mph10.7 mph10.4 mph10.9 mph12.7 mph13.5 mph14 mph13.6 mph12.4 mph12.2 mph11.6 mph11.6 mph11.4 mph10 mph9.3 mph9.2 mph9.4 mph10.7 mph11.9 mph11.7 mph11.8 mph11.2 mph11.4 mph11.8 mph10.3 mph11.1 mph10 mph8.9 mph11 mph10.8 mph11.5 mph12.3 mph12.5 mph12 mph10.8 mph10.2 mph9 mph8 mph6.1 mph4.7 mph7.2 mph15.5 mph15.5 mph14.8 mph
Wind
Direction
190°
S
190°
S
186°
S
185°
S
184°
S
184°
S
186°
S
182°
S
180°
S
181°
S
178°
S
178°
S
184°
S
181°
S
178°
S
178°
S
179°
S
175°
S
171°
S
172°
S
178°
S
179°
S
178°
S
179°
S
181°
S
183°
S
184°
S
190°
S
194°
SSW
186°
S
187°
S
188°
S
189°
S
196°
SSW
192°
SSW
197°
SSW
201°
SSW
206°
SSW
215°
SW
216°
SW
210°
SSW
205°
SSW
222°
SW
244°
WSW
331°
NNW

N
13°
NNE
22°
NNE

Daily Forecast

Date High Low Precip. Humidity
Today
Feb 27

Clouds
68 °F
62 °F
0%
71%
Wednesday
Feb 28

Rain
70 °F
59 °F
38%
81%
Thursday
Feb 29

Clouds
63 °F
53 °F
0%
37%
Friday
Mar 1

Clouds
66 °F
59 °F
7%
83%
Saturday
Mar 2

Rain
67 °F
62 °F
70%
84%
Sunday
Mar 3

Rain
69 °F
61 °F
26%
73%
Monday
Mar 4

Rain
69 °F
63 °F
100%
81%
Tuesday
Mar 5

Rain
68 °F
62 °F
100%
99%
Wednesday
Mar 6

Clouds
69 °F
56 °F
5%
69%
Thursday
Mar 7

Clouds
68 °F
63 °F
3%
89%
Friday
Mar 8

Rain
68 °F
66 °F
100%
95%
Saturday
Mar 9

Rain
68 °F
57 °F
81%
46%
Sunday
Mar 10

Clouds
65 °F
51 °F
0%
45%
Monday
Mar 11

Clouds
69 °F
56 °F
0%
50%
Tuesday
Mar 12

Clouds
69 °F
59 °F
0%
54%
Wednesday
Mar 13

Rain
69 °F
61 °F
39%
77%

Temperature 8-14 Day Outlook



Precipitation 8-14 Day Outlook




Quick Links
Apalachicola Bay - St. George Island News
Apalachicola Bay - St. George Island Photos
Apalachicola Bay - St. George Island Videos




About Us
Contact Us
Site Map
Search Site
Advertise With Us
   
Apalachicola.USGulf.info
THE APALACHICOLA BAY - ST. GEORGE ISLAND WEBSITE

Copyright 2024, Coastal Town
Privacy    |    Legal